Time,TemperatureF,DewpointF,PressureIn,WindDirection,WindDirectionDegrees,WindSpeedMPH,WindSpeedGustMPH,Humidity,HourlyPrecipIn,Conditions,Clouds,dailyrainin,SoftwareType,DateUTC
2013-06-28 00:00:00,69.6,61.7,29.77,West,267,3.0,3.0,76,0.00,,,0.00,Wunderground v.1.15,2013-06-28 05:00:00,
2013-06-28 00:04:00,69.7,61.4,29.77,West,279,3.0,12.0,75,0.00,,,0.00,Wunderground v.1.15,2013-06-28 05:04:00,
2013-06-28 00:06:00,69.9,61.6,29.77,WNW,284,3.0,12.0,75,0.00,,,0.00,Wunderground v.1.15,2013-06-28 05:06:00,
2013-06-28 00:10:00,69.9,61.6,29.78,WSW,255,3.0,3.0,75,0.00,,,0.00,Wunderground v.1.15,2013-06-28 05:10:00,
2013-06-28 00:12:00,69.8,61.5,29.78,WNW,283,2.0,3.0,75,0.00,,,0.00,Wunderground v.1.15,2013-06-28 05:12:00,
2013-06-28 00:16:00,69.9,61.6,29.77,WNW,302,2.0,3.0,75,0.00,,,0.00,Wunderground v.1.15,2013-06-28 05:16:00,
2013-06-28 00:18:00,69.9,61.6,29.78,WNW,283,2.0,3.0,75,0.00,,,0.00,Wunderground v.1.15,2013-06-28 05:18:00,
2013-06-28 00:24:00,70.1,61.8,29.78,WNW,288,3.0,3.0,75,0.00,,,0.00,Wunderground v.1.15,2013-06-28 05:24:00,
2013-06-28 00:26:00,70.1,61.8,29.78,WNW,302,3.0,3.0,75,0.00,,,0.00,Wunderground v.1.15,2013-06-28 05:26:00,
2013-06-28 00:28:00,70.1,61.8,29.78,WSW,252,3.0,3.0,75,0.00,,,0.00,Wunderground v.1.15,2013-06-28 05:28:00,
2013-06-28 00:30:00,70.1,61.8,29.78,WNW,286,3.0,3.0,75,0.00,,,0.00,Wunderground v.1.15,2013-06-28 05:30:00,
2013-06-28 00:32:00,69.9,61.6,29.78,West,259,3.0,3.0,75,0.00,,,0.00,Wunderground v.1.15,2013-06-28 05:32:00,
2013-06-28 00:34:00,69.8,61.9,29.78,WNW,302,3.0,3.0,76,0.00,,,0.00,Wunderground v.1.15,2013-06-28 05:34:00,
2013-06-28 00:36:00,69.7,61.8,29.78,WNW,300,3.0,3.0,76,0.00,,,0.00,Wunderground v.1.15,2013-06-28 05:36:00,
2013-06-28 00:38:00,69.6,61.7,29.78,West,264,3.0,3.0,76,0.00,,,0.00,Wunderground v.1.15,2013-06-28 05:38:00,
2013-06-28 00:40:00,69.5,61.6,29.77,NW,304,2.0,2.0,76,0.00,,,0.00,Wunderground v.1.15,2013-06-28 05:40:00,
2013-06-28 00:44:00,69.4,61.9,29.77,NW,325,2.0,2.0,77,0.00,,,0.00,Wunderground v.1.15,2013-06-28 05:44:00,
2013-06-28 00:46:00,69.2,62.0,29.77,NW,308,2.0,2.0,78,0.00,,,0.00,Wunderground v.1.15,2013-06-28 05:46:00,
2013-06-28 00:48:00,68.9,61.8,29.77,NNW,338,2.0,2.0,78,0.00,,,0.00,Wunderground v.1.15,2013-06-28 05:48:00,
2013-06-28 00:52:00,68.4,61.6,29.77,WNW,302,1.0,2.0,79,0.00,,,0.00,Wunderground v.1.15,2013-06-28 05:52:00,
2013-06-28 00:54:00,68.2,61.4,29.77,WNW,301,1.0,2.0,79,0.00,,,0.00,Wunderground v.1.15,2013-06-28 05:54:00,
2013-06-28 00:56:00,68.1,61.3,29.77,WNW,302,1.0,2.0,79,0.00,,,0.00,Wunderground v.1.15,2013-06-28 05:56:00,
2013-06-28 00:58:00,68.1,61.3,29.77,NW,304,1.0,3.0,79,0.00,,,0.00,Wunderground v.1.15,2013-06-28 05:58:00,
2013-06-28 01:02:00,68.3,61.5,29.77,WNW,284,1.0,6.0,79,0.00,,,0.00,Wunderground v.1.15,2013-06-28 06:02:00,
2013-06-28 01:04:00,68.3,61.5,29.77,West,276,1.0,6.0,79,0.00,,,0.00,Wunderground v.1.15,2013-06-28 06:04:00,
2013-06-28 01:06:00,68.3,61.5,29.77,WNW,285,1.0,6.0,79,0.00,,,0.00,Wunderground v.1.15,2013-06-28 06:06:00,
2013-06-28 01:12:00,68.3,61.9,29.78,West,274,1.0,6.0,80,0.00,,,0.00,Wunderground v.1.15,2013-06-28 06:12:00,
2013-06-28 01:14:00,68.1,61.7,29.78,West,270,1.0,6.0,80,0.00,,,0.00,Wunderground v.1.15,2013-06-28 06:14:00,
2013-06-28 01:16:00,68.0,61.9,29.78,West,278,1.0,6.0,81,0.00,,,0.00,Wunderground v.1.15,2013-06-28 06:16:00,
2013-06-28 01:18:00,67.9,61.9,29.78,WSW,257,1.0,6.0,81,0.00,,,0.00,Wunderground v.1.15,2013-06-28 06:18:00,
2013-06-28 01:22:00,67.6,61.6,29.78,WNW,288,1.0,6.0,81,0.00,,,0.00,Wunderground v.1.15,2013-06-28 06:22:00,
2013-06-28 01:26:00,67.8,61.4,29.78,WNW,297,2.0,6.0,80,0.00,,,0.00,Wunderground v.1.15,2013-06-28 06:26:00,
2013-06-28 01:28:00,67.9,61.5,29.78,WNW,284,2.0,6.0,80,0.00,,,0.00,Wunderground v.1.15,2013-06-28 06:28:00,
2013-06-28 01:30:00,67.9,61.5,29.78,WNW,301,2.0,6.0,80,0.00,,,0.00,Wunderground v.1.15,2013-06-28 06:30:00,
2013-06-28 01:34:00,68.0,61.6,29.78,West,263,2.0,6.0,80,0.00,,,0.00,Wunderground v.1.15,2013-06-28 06:34:00,
2013-06-28 01:36:00,67.9,61.5,29.78,West,278,2.0,6.0,80,0.00,,,0.00,Wunderground v.1.15,2013-06-28 06:36:00,
2013-06-28 01:42:00,67.8,61.4,29.78,WNW,301,2.0,6.0,80,0.00,,,0.00,Wunderground v.1.15,2013-06-28 06:42:00,
2013-06-28 01:44:00,67.9,61.1,29.78,NW,315,2.0,6.0,79,0.00,,,0.00,Wunderground v.1.15,2013-06-28 06:44:00,
2013-06-28 01:46:00,67.8,60.7,29.78,NW,316,2.0,6.0,78,0.00,,,0.00,Wunderground v.1.15,2013-06-28 06:46:00,
2013-06-28 01:50:00,67.7,60.6,29.77,WNW,295,2.0,2.0,78,0.00,,,0.00,Wunderground v.1.15,2013-06-28 06:50:00,
2013-06-28 01:52:00,67.6,60.5,29.78,NNW,339,2.0,6.0,78,0.00,,,0.00,Wunderground v.1.15,2013-06-28 06:52:00,
2013-06-28 01:54:00,67.5,60.4,29.78,WNW,302,2.0,6.0,78,0.00,,,0.00,Wunderground v.1.15,2013-06-28 06:54:00,
2013-06-28 01:58:00,67.6,60.5,29.78,WNW,298,2.0,6.0,78,0.00,,,0.00,Wunderground v.1.15,2013-06-28 06:58:00,
2013-06-28 02:00:00,67.6,60.5,29.78,WNW,285,2.0,2.0,78,0.00,,,0.00,Wunderground v.1.15,2013-06-28 07:00:00,
2013-06-28 02:04:00,67.7,60.2,29.78,NW,307,1.0,6.0,77,0.00,,,0.00,Wunderground v.1.15,2013-06-28 07:04:00,
2013-06-28 02:06:00,67.6,60.5,29.78,WNW,289,1.0,6.0,78,0.00,,,0.00,Wunderground v.1.15,2013-06-28 07:06:00,
2013-06-28 02:10:00,67.6,60.9,29.78,West,276,1.0,1.0,79,0.00,,,0.00,Wunderground v.1.15,2013-06-28 07:10:00,
2013-06-28 02:12:00,67.4,60.7,29.78,NW,310,1.0,3.0,79,0.00,,,0.00,Wunderground v.1.15,2013-06-28 07:12:00,
2013-06-28 02:16:00,67.0,60.3,29.78,West,268,1.0,6.0,79,0.00,,,0.00,Wunderground v.1.15,2013-06-28 07:16:00,
2013-06-28 02:18:00,66.9,60.2,29.78,NW,305,1.0,6.0,79,0.00,,,0.00,Wunderground v.1.15,2013-06-28 07:18:00,
2013-06-28 02:20:00,66.9,60.2,29.78,NW,315,1.0,6.0,79,0.00,,,0.00,Wunderground v.1.15,2013-06-28 07:20:00,
2013-06-28 02:22:00,66.8,60.1,29.78,WNW,300,2.0,6.0,79,0.00,,,0.00,Wunderground v.1.15,2013-06-28 07:22:00,
2013-06-28 02:24:00,66.7,60.0,29.78,NW,318,2.0,6.0,79,0.00,,,0.00,Wunderground v.1.15,2013-06-28 07:24:00,
2013-06-28 02:26:00,66.4,59.7,29.79,NW,308,2.0,6.0,79,0.00,,,0.00,Wunderground v.1.15,2013-06-28 07:26:00,
2013-06-28 02:28:00,66.3,59.6,29.79,NW,310,2.0,6.0,79,0.00,,,0.00,Wunderground v.1.15,2013-06-28 07:28:00,
2013-06-28 02:34:00,66.1,59.7,29.78,NW,304,2.0,6.0,80,0.00,,,0.00,Wunderground v.1.15,2013-06-28 07:34:00,
2013-06-28 02:36:00,66.1,59.7,29.78,NW,309,2.0,6.0,80,0.00,,,0.00,Wunderground v.1.15,2013-06-28 07:36:00,
2013-06-28 02:38:00,66.0,59.7,29.78,NW,311,2.0,6.0,80,0.00,,,0.00,Wunderground v.1.15,2013-06-28 07:38:00,
2013-06-28 02:42:00,65.5,59.5,29.78,NW,304,1.0,6.0,81,0.00,,,0.00,Wunderground v.1.15,2013-06-28 07:42:00,
2013-06-28 02:44:00,65.2,59.6,29.78,WNW,300,1.0,6.0,82,0.00,,,0.00,Wunderground v.1.15,2013-06-28 07:44:00,
2013-06-28 02:46:00,65.0,59.4,29.78,NW,313,1.0,6.0,82,0.00,,,0.00,Wunderground v.1.15,2013-06-28 07:46:00,
2013-06-28 02:50:00,65.0,59.4,29.78,NW,307,1.0,6.0,82,0.00,,,0.00,Wunderground v.1.15,2013-06-28 07:50:00,
2013-06-28 02:52:00,65.0,59.0,29.78,WNW,302,1.0,6.0,81,0.00,,,0.00,Wunderground v.1.15,2013-06-28 07:52:00,
2013-06-28 02:56:00,64.9,59.3,29.78,NW,320,1.0,6.0,82,0.00,,,0.00,Wunderground v.1.15,2013-06-28 07:56:00,
2013-06-28 03:00:00,64.7,59.1,29.78,WNW,302,1.0,6.0,82,0.00,,,0.00,Wunderground v.1.15,2013-06-28 08:00:00,
2013-06-28 03:04:00,64.9,58.9,29.78,West,276,2.0,6.0,81,0.00,,,0.00,Wunderground v.1.15,2013-06-28 08:04:00,
2013-06-28 03:06:00,65.2,59.2,29.78,WNW,288,2.0,6.0,81,0.00,,,0.00,Wunderground v.1.15,2013-06-28 08:06:00,
2013-06-28 03:10:00,65.5,59.2,29.78,WNW,284,2.0,2.0,80,0.00,,,0.00,Wunderground v.1.15,2013-06-28 08:10:00,
2013-06-28 03:12:00,65.5,59.5,29.78,WNW,285,2.0,6.0,81,0.00,,,0.00,Wunderground v.1.15,2013-06-28 08:12:00,
2013-06-28 03:14:00,65.4,59.4,29.78,WNW,283,2.0,6.0,81,0.00,,,0.00,Wunderground v.1.15,2013-06-28 08:14:00,
2013-06-28 03:16:00,65.4,59.4,29.78,WNW,302,2.0,6.0,81,0.00,,,0.00,Wunderground v.1.15,2013-06-28 08:16:00,
2013-06-28 03:20:00,65.4,59.4,29.78,NW,311,2.0,2.0,81,0.00,,,0.00,Wunderground v.1.15,2013-06-28 08:20:00,
2013-06-28 03:22:00,65.3,59.3,29.78,NW,310,2.0,6.0,81,0.00,,,0.00,Wunderground v.1.15,2013-06-28 08:22:00,
2013-06-28 03:24:00,65.2,59.2,29.78,NW,305,2.0,6.0,81,0.00,,,0.00,Wunderground v.1.15,2013-06-28 08:24:00,
2013-06-28 03:26:00,65.1,59.1,29.78,NNW,335,2.0,6.0,81,0.00,,,0.00,Wunderground v.1.15,2013-06-28 08:26:00,
2013-06-28 03:28:00,65.1,59.1,29.78,NW,316,2.0,6.0,81,0.00,,,0.00,Wunderground v.1.15,2013-06-28 08:28:00,
2013-06-28 03:30:00,65.1,59.1,29.78,NW,318,2.0,6.0,81,0.00,,,0.00,Wunderground v.1.15,2013-06-28 08:30:00,
2013-06-28 03:34:00,65.0,59.0,29.78,NW,316,2.0,6.0,81,0.00,,,0.00,Wunderground v.1.15,2013-06-28 08:34:00,
2013-06-28 03:36:00,65.0,59.0,29.78,NW,308,2.0,6.0,81,0.00,,,0.00,Wunderground v.1.15,2013-06-28 08:36:00,
2013-06-28 03:40:00,64.9,59.3,29.79,NW,318,2.0,2.0,82,0.00,,,0.00,Wunderground v.1.15,2013-06-28 08:40:00,
2013-06-28 03:46:00,64.6,59.0,29.79,NW,316,2.0,6.0,82,0.00,,,0.00,Wunderground v.1.15,2013-06-28 08:46:00,
2013-06-28 03:50:00,64.6,59.0,29.79,NW,320,1.0,6.0,82,0.00,,,0.00,Wunderground v.1.15,2013-06-28 08:50:00,
2013-06-28 03:52:00,64.5,59.2,29.79,NW,318,1.0,6.0,83,0.00,,,0.00,Wunderground v.1.15,2013-06-28 08:52:00,
2013-06-28 03:54:00,64.4,58.8,29.78,NNW,343,2.0,6.0,82,0.00,,,0.00,Wunderground v.1.15,2013-06-28 08:54:00,
2013-06-28 03:58:00,64.3,58.7,29.79,NNW,340,2.0,6.0,82,0.00,,,0.00,Wunderground v.1.15,2013-06-28 08:58:00,
2013-06-28 04:00:00,64.4,58.8,29.79,North,359,2.0,6.0,82,0.00,,,0.00,Wunderground v.1.15,2013-06-28 09:00:00,
2013-06-28 04:02:00,64.3,58.7,29.78,NNW,338,2.0,6.0,82,0.00,,,0.00,Wunderground v.1.15,2013-06-28 09:02:00,
2013-06-28 04:06:00,64.2,58.6,29.78,NNW,347,2.0,6.0,82,0.00,,,0.00,Wunderground v.1.15,2013-06-28 09:06:00,
2013-06-28 04:08:00,64.2,58.6,29.78,NNW,338,2.0,6.0,82,0.00,,,0.00,Wunderground v.1.15,2013-06-28 09:08:00,
2013-06-28 04:12:00,64.3,58.7,29.78,NW,305,2.0,6.0,82,0.00,,,0.00,Wunderground v.1.15,2013-06-28 09:12:00,
2013-06-28 04:14:00,64.3,58.7,29.78,NNW,336,3.0,6.0,82,0.00,,,0.00,Wunderground v.1.15,2013-06-28 09:14:00,
2013-06-28 04:16:00,64.3,58.7,29.78,NW,320,2.0,6.0,82,0.00,,,0.00,Wunderground v.1.15,2013-06-28 09:16:00,
2013-06-28 04:18:00,64.3,58.7,29.78,North,352,2.0,6.0,82,0.00,,,0.00,Wunderground v.1.15,2013-06-28 09:18:00,
2013-06-28 04:22:00,64.3,58.3,29.78,NW,305,2.0,6.0,81,0.00,,,0.00,Wunderground v.1.15,2013-06-28 09:22:00,
2013-06-28 04:26:00,64.3,58.7,29.78,NW,319,2.0,6.0,82,0.00,,,0.00,Wunderground v.1.15,2013-06-28 09:26:00,
2013-06-28 04:28:00,64.1,58.8,29.78,WNW,302,2.0,6.0,83,0.00,,,0.00,Wunderground v.1.15,2013-06-28 09:28:00,
2013-06-28 04:30:00,63.9,58.6,29.78,NW,309,1.0,6.0,83,0.00,,,0.00,Wunderground v.1.15,2013-06-28 09:30:00,
2013-06-28 04:32:00,63.7,58.4,29.78,NW,305,1.0,6.0,83,0.00,,,0.00,Wunderground v.1.15,2013-06-28 09:32:00,
2013-06-28 04:34:00,63.6,58.3,29.78,NW,313,1.0,6.0,83,0.00,,,0.00,Wunderground v.1.15,2013-06-28 09:34:00,
2013-06-28 04:38:00,63.5,58.6,29.78,WNW,291,2.0,6.0,84,0.00,,,0.00,Wunderground v.1.15,2013-06-28 09:38:00,
2013-06-28 04:40:00,63.5,58.6,29.78,NW,322,2.0,6.0,84,0.00,,,0.00,Wunderground v.1.15,2013-06-28 09:40:00,
2013-06-28 04:42:00,63.7,58.8,29.78,WNW,295,2.0,6.0,84,0.00,,,0.00,Wunderground v.1.15,2013-06-28 09:42:00,
2013-06-28 04:48:00,63.9,58.6,29.78,WNW,302,3.0,6.0,83,0.00,,,0.00,Wunderground v.1.15,2013-06-28 09:48:00,
2013-06-28 04:50:00,63.8,58.5,29.78,NW,304,3.0,3.0,83,0.00,,,0.00,Wunderground v.1.15,2013-06-28 09:50:00,
2013-06-28 04:54:00,63.5,58.6,29.78,WNW,298,2.0,6.0,84,0.00,,,0.00,Wunderground v.1.15,2013-06-28 09:54:00,
2013-06-28 04:56:00,63.4,58.5,29.78,WNW,295,2.0,6.0,84,0.00,,,0.00,Wunderground v.1.15,2013-06-28 09:56:00,
2013-06-28 04:58:00,63.2,58.3,29.78,WNW,300,1.0,6.0,84,0.00,,,0.00,Wunderground v.1.15,2013-06-28 09:58:00,
2013-06-28 05:00:00,63.2,58.3,29.78,West,280,1.0,6.0,84,0.00,,,0.00,Wunderground v.1.15,2013-06-28 10:00:00,
2013-06-28 05:06:00,62.8,58.2,29.78,West,278,1.0,6.0,85,0.00,,,0.00,Wunderground v.1.15,2013-06-28 10:06:00,
2013-06-28 05:08:00,62.6,58.0,29.78,WSW,249,1.0,6.0,85,0.00,,,0.00,Wunderground v.1.15,2013-06-28 10:08:00,
2013-06-28 05:10:00,62.4,57.8,29.78,West,260,1.0,6.0,85,0.00,,,0.00,Wunderground v.1.15,2013-06-28 10:10:00,
2013-06-28 05:14:00,62.1,57.9,29.78,West,266,1.0,6.0,86,0.00,,,0.00,Wunderground v.1.15,2013-06-28 10:14:00,
2013-06-28 05:16:00,61.9,57.7,29.78,West,270,1.0,6.0,86,0.00,,,0.00,Wunderground v.1.15,2013-06-28 10:16:00,
2013-06-28 05:18:00,61.7,57.5,29.78,West,278,1.0,6.0,86,0.00,,,0.00,Wunderground v.1.15,2013-06-28 10:18:00,
2013-06-28 05:20:00,61.6,57.7,29.78,WSW,258,1.0,6.0,87,0.00,,,0.00,Wunderground v.1.15,2013-06-28 10:20:00,
2013-06-28 05:22:00,61.6,57.7,29.78,West,276,1.0,6.0,87,0.00,,,0.00,Wunderground v.1.15,2013-06-28 10:22:00,
2013-06-28 05:26:00,61.7,57.8,29.78,West,267,2.0,6.0,87,0.00,,,0.00,Wunderground v.1.15,2013-06-28 10:26:00,
2013-06-28 05:28:00,61.7,57.8,29.78,West,259,2.0,6.0,87,0.00,,,0.00,Wunderground v.1.15,2013-06-28 10:28:00,
2013-06-28 05:30:00,61.7,57.8,29.78,West,259,2.0,2.0,87,0.00,,,0.00,Wunderground v.1.15,2013-06-28 10:30:00,
2013-06-28 05:34:00,61.4,57.5,29.78,West,276,1.0,6.0,87,0.00,,,0.00,Wunderground v.1.15,2013-06-28 10:34:00,
2013-06-28 05:36:00,61.3,57.4,29.78,West,266,1.0,6.0,87,0.00,,,0.00,Wunderground v.1.15,2013-06-28 10:36:00,
2013-06-28 05:38:00,61.2,57.3,29.78,West,271,1.0,6.0,87,0.00,,,0.00,Wunderground v.1.15,2013-06-28 10:38:00,
2013-06-28 05:44:00,61.2,57.6,29.78,West,269,1.0,6.0,88,0.00,,,0.00,Wunderground v.1.15,2013-06-28 10:44:00,
2013-06-28 05:46:00,61.3,57.7,29.78,WSW,251,1.0,6.0,88,0.00,,,0.00,Wunderground v.1.15,2013-06-28 10:46:00,
2013-06-28 05:48:00,61.4,57.8,29.78,WNW,303,1.0,6.0,88,0.00,,,0.00,Wunderground v.1.15,2013-06-28 10:48:00,
2013-06-28 05:50:00,61.7,57.8,29.78,WNW,288,2.0,6.0,87,0.00,,,0.00,Wunderground v.1.15,2013-06-28 10:50:00,
2013-06-28 05:52:00,61.8,57.9,29.78,WNW,290,2.0,6.0,87,0.00,,,0.00,Wunderground v.1.15,2013-06-28 10:52:00,
2013-06-28 05:56:00,62.0,58.1,29.78,WNW,289,2.0,6.0,87,0.00,,,0.00,Wunderground v.1.15,2013-06-28 10:56:00,
2013-06-28 05:58:00,62.0,58.1,29.78,WSW,245,2.0,6.0,87,0.00,,,0.00,Wunderground v.1.15,2013-06-28 10:58:00,
2013-06-28 06:00:00,62.1,57.9,29.78,WNW,300,2.0,6.0,86,0.00,,,0.00,Wunderground v.1.15,2013-06-28 11:00:00,
2013-06-28 06:06:00,62.5,57.9,29.78,West,264,2.0,6.0,85,0.00,,,0.00,Wunderground v.1.15,2013-06-28 11:06:00,
2013-06-28 06:10:00,62.4,57.8,29.78,WNW,288,3.0,3.0,85,0.00,,,0.00,Wunderground v.1.15,2013-06-28 11:10:00,
2013-06-28 06:14:00,62.5,57.9,29.78,WNW,284,2.0,6.0,85,0.00,,,0.00,Wunderground v.1.15,2013-06-28 11:14:00,
2013-06-28 06:16:00,62.5,57.9,29.78,NW,304,2.0,6.0,85,0.00,,,0.00,Wunderground v.1.15,2013-06-28 11:16:00,
2013-06-28 06:20:00,62.6,58.0,29.78,NW,308,2.0,6.0,85,0.00,,,0.00,Wunderground v.1.15,2013-06-28 11:20:00,
2013-06-28 06:24:00,62.9,58.0,29.78,WNW,293,3.0,6.0,84,0.00,,,0.00,Wunderground v.1.15,2013-06-28 11:24:00,
2013-06-28 06:26:00,63.2,58.3,29.78,WNW,298,3.0,6.0,84,0.00,,,0.00,Wunderground v.1.15,2013-06-28 11:26:00,
2013-06-28 06:32:00,63.7,58.4,29.78,NNW,327,3.0,6.0,83,0.00,,,0.00,Wunderground v.1.15,2013-06-28 11:32:00,
2013-06-28 06:34:00,63.8,58.5,29.78,NW,318,3.0,6.0,83,0.00,,,0.00,Wunderground v.1.15,2013-06-28 11:34:00,
2013-06-28 06:36:00,64.0,58.4,29.78,NW,318,3.0,6.0,82,0.00,,,0.00,Wunderground v.1.15,2013-06-28 11:36:00,
2013-06-28 06:40:00,64.2,58.6,29.78,WNW,294,3.0,3.0,82,0.00,,,0.00,Wunderground v.1.15,2013-06-28 11:40:00,
2013-06-28 06:42:00,64.4,58.8,29.78,WNW,297,3.0,6.0,82,0.00,,,0.00,Wunderground v.1.15,2013-06-28 11:42:00,
2013-06-28 06:46:00,64.7,59.1,29.78,NNW,339,3.0,6.0,82,0.00,,,0.00,Wunderground v.1.15,2013-06-28 11:46:00,
2013-06-28 06:50:00,65.2,59.2,29.78,WNW,293,2.0,2.0,81,0.00,,,0.00,Wunderground v.1.15,2013-06-28 11:50:00,
2013-06-28 06:52:00,65.4,59.4,29.78,WNW,297,2.0,6.0,81,0.00,,,0.00,Wunderground v.1.15,2013-06-28 11:52:00,
2013-06-28 06:54:00,65.6,59.6,29.78,WNW,300,2.0,6.0,81,0.00,,,0.00,Wunderground v.1.15,2013-06-28 11:54:00,
2013-06-28 06:56:00,65.9,59.6,29.78,NW,305,2.0,6.0,80,0.00,,,0.00,Wunderground v.1.15,2013-06-28 11:56:00,
2013-06-28 06:58:00,66.1,59.7,29.78,WNW,300,2.0,6.0,80,0.00,,,0.00,Wunderground v.1.15,2013-06-28 11:58:00,
2013-06-28 07:02:00,66.6,59.9,29.78,NW,325,2.0,6.0,79,0.00,,,0.00,Wunderground v.1.15,2013-06-28 12:02:00,
2013-06-28 07:04:00,66.8,60.1,29.78,NW,316,2.0,6.0,79,0.00,,,0.00,Wunderground v.1.15,2013-06-28 12:04:00,
2013-06-28 07:06:00,67.1,60.0,29.78,NW,319,3.0,6.0,78,0.00,,,0.00,Wunderground v.1.15,2013-06-28 12:06:00,
2013-06-28 07:10:00,67.7,59.9,29.78,NW,305,3.0,6.0,76,0.00,,,0.00,Wunderground v.1.15,2013-06-28 12:10:00,
2013-06-28 07:12:00,67.9,59.7,29.78,NW,318,3.0,6.0,75,0.00,,,0.00,Wunderground v.1.15,2013-06-28 12:12:00,
2013-06-28 07:14:00,68.1,59.5,29.78,WNW,293,4.0,6.0,74,0.00,,,0.00,Wunderground v.1.15,2013-06-28 12:14:00,
2013-06-28 07:18:00,68.4,59.8,29.78,NNW,342,4.0,6.0,74,0.00,,,0.00,Wunderground v.1.15,2013-06-28 12:18:00,
2013-06-28 07:20:00,68.6,60.0,29.78,NW,318,4.0,4.0,74,0.00,,,0.00,Wunderground v.1.15,2013-06-28 12:20:00,
2013-06-28 07:22:00,68.7,59.7,29.78,North,6,4.0,6.0,73,0.00,,,0.00,Wunderground v.1.15,2013-06-28 12:22:00,
2013-06-28 07:24:00,68.9,59.9,29.78,WNW,283,4.0,6.0,73,0.00,,,0.00,Wunderground v.1.15,2013-06-28 12:24:00,
2013-06-28 07:26:00,69.0,59.6,29.78,NW,322,5.0,6.0,72,0.00,,,0.00,Wunderground v.1.15,2013-06-28 12:26:00,
2013-06-28 07:30:00,69.3,60.3,29.78,North,6,5.0,5.0,73,0.00,,,0.00,Wunderground v.1.15,2013-06-28 12:30:00,
2013-06-28 07:34:00,69.6,60.2,29.78,NNW,333,5.0,6.0,72,0.00,,,0.00,Wunderground v.1.15,2013-06-28 12:34:00,
2013-06-28 07:38:00,69.9,60.1,29.78,NW,311,5.0,6.0,71,0.00,,,0.00,Wunderground v.1.15,2013-06-28 12:38:00,
2013-06-28 07:42:00,70.2,60.0,29.78,NNW,339,5.0,7.0,70,0.00,,,0.00,Wunderground v.1.15,2013-06-28 12:42:00,
2013-06-28 07:46:00,70.4,60.1,29.78,NW,304,6.0,7.0,70,0.00,,,0.00,Wunderground v.1.15,2013-06-28 12:46:00,
2013-06-28 07:48:00,70.6,59.5,29.78,NNW,340,6.0,9.0,68,0.00,,,0.00,Wunderground v.1.15,2013-06-28 12:48:00,
2013-06-28 07:52:00,70.9,60.2,29.78,NW,312,6.0,7.0,69,0.00,,,0.00,Wunderground v.1.15,2013-06-28 12:52:00,
2013-06-28 07:54:00,71.0,60.3,29.78,WNW,302,6.0,7.0,69,0.00,,,0.00,Wunderground v.1.15,2013-06-28 12:54:00,
2013-06-28 07:56:00,71.1,60.4,29.78,NW,319,6.0,7.0,69,0.00,,,0.00,Wunderground v.1.15,2013-06-28 12:56:00,
2013-06-28 07:58:00,71.3,60.6,29.78,NNE,22,6.0,7.0,69,0.00,,,0.00,Wunderground v.1.15,2013-06-28 12:58:00,
2013-06-28 08:02:00,71.5,59.5,29.78,NW,325,6.0,8.0,66,0.00,,,0.00,Wunderground v.1.15,2013-06-28 13:02:00,
2013-06-28 08:04:00,71.6,60.1,29.78,NW,308,6.0,9.0,67,0.00,,,0.00,Wunderground v.1.15,2013-06-28 13:04:00,
2013-06-28 08:06:00,71.8,60.2,29.78,NW,316,6.0,9.0,67,0.00,,,0.00,Wunderground v.1.15,2013-06-28 13:06:00,
2013-06-28 08:08:00,71.9,60.3,29.78,NW,325,7.0,9.0,67,0.00,,,0.00,Wunderground v.1.15,2013-06-28 13:08:00,
2013-06-28 08:10:00,72.0,60.0,29.78,NNE,18,6.0,6.0,66,0.00,,,0.00,Wunderground v.1.15,2013-06-28 13:10:00,
2013-06-28 08:16:00,72.5,60.9,29.78,NW,315,6.0,8.0,67,0.00,,,0.00,Wunderground v.1.15,2013-06-28 13:16:00,
2013-06-28 08:18:00,72.6,60.2,29.78,NW,321,6.0,8.0,65,0.00,,,0.00,Wunderground v.1.15,2013-06-28 13:18:00,
2013-06-28 08:22:00,72.8,59.9,29.78,North,3,6.0,7.0,64,0.00,,,0.00,Wunderground v.1.15,2013-06-28 13:22:00,
2013-06-28 08:28:00,73.2,60.7,29.78,NW,319,6.0,9.0,65,0.00,,,0.00,Wunderground v.1.15,2013-06-28 13:28:00,
2013-06-28 08:30:00,73.3,60.8,29.78,NNW,333,6.0,6.0,65,0.00,,,0.00,Wunderground v.1.15,2013-06-28 13:30:00,
2013-06-28 08:32:00,73.4,60.0,29.78,WNW,285,6.0,7.0,63,0.00,,,0.00,Wunderground v.1.15,2013-06-28 13:32:00,
2013-06-28 08:34:00,73.5,59.7,29.78,NW,319,6.0,7.0,62,0.00,,,0.00,Wunderground v.1.15,2013-06-28 13:34:00,
2013-06-28 08:40:00,73.8,59.5,29.78,NNW,328,7.0,7.0,61,0.00,,,0.00,Wunderground v.1.15,2013-06-28 13:40:00,
2013-06-28 08:42:00,73.9,59.1,29.78,NNW,332,7.0,7.0,60,0.00,,,0.00,Wunderground v.1.15,2013-06-28 13:42:00,
2013-06-28 08:44:00,74.0,59.7,29.78,WNW,299,7.0,8.0,61,0.00,,,0.00,Wunderground v.1.15,2013-06-28 13:44:00,
2013-06-28 08:48:00,74.1,58.9,29.78,NW,313,8.0,13.0,59,0.00,,,0.00,Wunderground v.1.15,2013-06-28 13:48:00,
2013-06-28 08:52:00,74.3,60.0,29.78,NNE,23,8.0,9.0,61,0.00,,,0.00,Wunderground v.1.15,2013-06-28 13:52:00,
2013-06-28 08:54:00,74.5,59.7,29.78,NNE,16,8.0,17.0,60,0.00,,,0.00,Wunderground v.1.15,2013-06-28 13:54:00,
2013-06-28 08:56:00,74.6,58.4,29.78,WNW,296,9.0,17.0,57,0.00,,,0.00,Wunderground v.1.15,2013-06-28 13:56:00,
2013-06-28 08:58:00,74.7,59.4,29.78,NNW,328,9.0,17.0,59,0.00,,,0.00,Wunderground v.1.15,2013-06-28 13:58:00,
2013-06-28 09:02:00,74.9,58.6,29.78,NW,319,8.0,16.0,57,0.00,,,0.00,Wunderground v.1.15,2013-06-28 14:02:00,
2013-06-28 09:04:00,75.0,58.7,29.78,NW,318,9.0,16.0,57,0.00,,,0.00,Wunderground v.1.15,2013-06-28 14:04:00,
2013-06-28 09:08:00,75.1,58.3,29.78,WNW,291,10.0,16.0,56,0.00,,,0.00,Wunderground v.1.15,2013-06-28 14:08:00,
2013-06-28 09:14:00,75.4,58.1,29.77,NNW,330,11.0,14.0,55,0.00,,,0.00,Wunderground v.1.15,2013-06-28 14:14:00,
2013-06-28 09:16:00,75.5,58.2,29.77,ENE,77,10.0,14.0,55,0.00,,,0.00,Wunderground v.1.15,2013-06-28 14:16:00,
2013-06-28 09:22:00,75.8,58.5,29.77,NW,326,10.0,16.0,55,0.00,,,0.00,Wunderground v.1.15,2013-06-28 14:22:00,
2013-06-28 09:24:00,75.9,57.5,29.77,North,4,10.0,16.0,53,0.00,,,0.00,Wunderground v.1.15,2013-06-28 14:24:00,
2013-06-28 09:28:00,76.0,58.2,29.77,WNW,297,11.0,16.0,54,0.00,,,0.00,Wunderground v.1.15,2013-06-28 14:28:00,
2013-06-28 09:32:00,76.1,58.2,29.77,NW,314,11.0,14.0,54,0.00,,,0.00,Wunderground v.1.15,2013-06-28 14:32:00,
2013-06-28 09:34:00,76.2,57.8,29.77,WNW,285,11.0,14.0,53,0.00,,,0.00,Wunderground v.1.15,2013-06-28 14:34:00,
2013-06-28 09:38:00,76.3,57.4,29.77,North,356,12.0,14.0,52,0.00,,,0.00,Wunderground v.1.15,2013-06-28 14:38:00,
2013-06-28 09:40:00,76.3,58.4,29.77,West,267,12.0,12.0,54,0.00,,,0.00,Wunderground v.1.15,2013-06-28 14:40:00,
2013-06-28 09:44:00,76.5,58.6,29.77,NNW,336,12.0,12.0,54,0.00,,,0.00,Wunderground v.1.15,2013-06-28 14:44:00,
2013-06-28 09:46:00,76.6,59.7,29.77,NW,315,11.0,12.0,56,0.00,,,0.00,Wunderground v.1.15,2013-06-28 14:46:00,
2013-06-28 09:48:00,76.7,58.3,29.77,NW,319,11.0,12.0,53,0.00,,,0.00,Wunderground v.1.15,2013-06-28 14:48:00,
2013-06-28 09:50:00,76.7,58.8,29.76,NW,308,10.0,13.0,54,0.00,,,0.00,Wunderground v.1.15,2013-06-28 14:50:00,
2013-06-28 09:56:00,76.8,59.4,29.76,NNW,342,11.0,14.0,55,0.00,,,0.00,Wunderground v.1.15,2013-06-28 14:56:00,
2013-06-28 10:02:00,77.0,58.6,29.76,North,356,11.0,21.0,53,0.00,,,0.00,Wunderground v.1.15,2013-06-28 15:02:00,
2013-06-28 10:04:00,77.0,59.1,29.76,North,10,12.0,21.0,54,0.00,,,0.00,Wunderground v.1.15,2013-06-28 15:04:00,
2013-06-28 10:06:00,77.0,58.6,29.76,NNW,332,11.0,21.0,53,0.00,,,0.00,Wunderground v.1.15,2013-06-28 15:06:00,
2013-06-28 10:08:00,77.0,58.6,29.76,North,354,12.0,21.0,53,0.00,,,0.00,Wunderground v.1.15,2013-06-28 15:08:00,
2013-06-28 10:12:00,77.2,58.7,29.76,NW,323,12.0,16.0,53,0.00,,,0.00,Wunderground v.1.15,2013-06-28 15:12:00,
2013-06-28 10:14:00,77.2,58.2,29.76,NNW,345,12.0,16.0,52,0.00,,,0.00,Wunderground v.1.15,2013-06-28 15:14:00,
2013-06-28 10:16:00,77.2,59.3,29.76,North,359,12.0,16.0,54,0.00,,,0.00,Wunderground v.1.15,2013-06-28 15:16:00,
2013-06-28 10:20:00,77.5,59.5,29.76,NW,316,11.0,11.0,54,0.00,,,0.00,Wunderground v.1.15,2013-06-28 15:20:00,
2013-06-28 10:22:00,77.7,59.7,29.76,NNE,23,11.0,11.0,54,0.00,,,0.00,Wunderground v.1.15,2013-06-28 15:22:00,
2013-06-28 10:26:00,77.5,57.9,29.76,NNW,345,12.0,14.0,51,0.00,,,0.00,Wunderground v.1.15,2013-06-28 15:26:00,
2013-06-28 10:28:00,77.5,58.5,29.76,NW,318,13.0,14.0,52,0.00,,,0.00,Wunderground v.1.15,2013-06-28 15:28:00,
2013-06-28 10:32:00,77.8,58.8,29.76,NNW,337,13.0,13.0,52,0.00,,,0.00,Wunderground v.1.15,2013-06-28 15:32:00,
2013-06-28 10:38:00,78.1,59.0,29.76,NNW,332,11.0,14.0,52,0.00,,,0.00,Wunderground v.1.15,2013-06-28 15:38:00,
2013-06-28 10:44:00,78.6,59.5,29.76,NW,308,11.0,15.0,52,0.00,,,0.00,Wunderground v.1.15,2013-06-28 15:44:00,
2013-06-28 10:46:00,78.6,60.6,29.76,NNW,328,10.0,15.0,54,0.00,,,0.00,Wunderground v.1.15,2013-06-28 15:46:00,
2013-06-28 10:48:00,78.7,59.0,29.76,NNW,340,10.0,15.0,51,0.00,,,0.00,Wunderground v.1.15,2013-06-28 15:48:00,
2013-06-28 10:50:00,78.6,60.0,29.76,East,94,10.0,12.0,53,0.00,,,0.00,Wunderground v.1.15,2013-06-28 15:50:00,
2013-06-28 10:52:00,78.7,60.1,29.76,NNW,340,11.0,14.0,53,0.00,,,0.00,Wunderground v.1.15,2013-06-28 15:52:00,
2013-06-28 10:56:00,78.6,58.4,29.76,NNW,328,12.0,15.0,50,0.00,,,0.00,Wunderground v.1.15,2013-06-28 15:56:00,
2013-06-28 10:58:00,78.6,59.5,29.75,NW,319,12.0,15.0,52,0.00,,,0.00,Wunderground v.1.15,2013-06-28 15:58:00,
2013-06-28 11:02:00,78.8,59.1,29.75,North,6,12.0,22.0,51,0.00,,,0.00,Wunderground v.1.15,2013-06-28 16:02:00,
2013-06-28 11:04:00,78.9,59.8,29.76,North,351,13.0,22.0,52,0.00,,,0.00,Wunderground v.1.15,2013-06-28 16:04:00,
2013-06-28 11:06:00,78.9,58.7,29.76,North,359,13.0,22.0,50,0.00,,,0.00,Wunderground v.1.15,2013-06-28 16:06:00,
2013-06-28 11:08:00,78.9,59.2,29.76,NE,50,12.0,22.0,51,0.00,,,0.00,Wunderground v.1.15,2013-06-28 16:08:00,
2013-06-28 11:10:00,78.8,57.4,29.76,NNW,337,13.0,13.0,48,0.00,,,0.00,Wunderground v.1.15,2013-06-28 16:10:00,
2013-06-28 11:12:00,78.9,58.7,29.76,NW,311,13.0,13.0,50,0.00,,,0.00,Wunderground v.1.15,2013-06-28 16:12:00,
2013-06-28 11:16:00,79.2,60.1,29.76,NW,324,12.0,13.0,52,0.00,,,0.00,Wunderground v.1.15,2013-06-28 16:16:00,
2013-06-28 11:18:00,79.2,59.0,29.76,NW,311,11.0,17.0,50,0.00,,,0.00,Wunderground v.1.15,2013-06-28 16:18:00,
2013-06-28 11:20:00,79.2,58.4,29.76,NE,41,11.0,14.0,49,0.00,,,0.00,Wunderground v.1.15,2013-06-28 16:20:00,
2013-06-28 11:22:00,79.1,58.3,29.76,North,352,12.0,14.0,49,0.00,,,0.00,Wunderground v.1.15,2013-06-28 16:22:00,
2013-06-28 11:24:00,79.1,58.9,29.76,NNW,346,12.0,14.0,50,0.00,,,0.00,Wunderground v.1.15,2013-06-28 16:24:00,
2013-06-28 11:26:00,79.2,58.4,29.75,NNE,18,12.0,14.0,49,0.00,,,0.00,Wunderground v.1.15,2013-06-28 16:26:00,
2013-06-28 11:28:00,79.1,58.3,29.75,NW,304,12.0,14.0,49,0.00,,,0.00,Wunderground v.1.15,2013-06-28 16:28:00,
2013-06-28 11:32:00,79.4,59.1,29.75,WNW,294,12.0,17.0,50,0.00,,,0.00,Wunderground v.1.15,2013-06-28 16:32:00,
2013-06-28 11:34:00,79.6,59.3,29.76,North,353,12.0,17.0,50,0.00,,,0.00,Wunderground v.1.15,2013-06-28 16:34:00,
2013-06-28 11:36:00,79.7,58.8,29.76,NNW,346,12.0,17.0,49,0.00,,,0.00,Wunderground v.1.15,2013-06-28 16:36:00,
2013-06-28 11:38:00,79.6,57.6,29.75,NNW,328,13.0,17.0,47,0.00,,,0.00,Wunderground v.1.15,2013-06-28 16:38:00,
2013-06-28 11:40:00,79.6,58.2,29.75,NW,314,13.0,13.0,48,0.00,,,0.00,Wunderground v.1.15,2013-06-28 16:40:00,
2013-06-28 11:44:00,79.9,58.5,29.75,NW,325,13.0,17.0,48,0.00,,,0.00,Wunderground v.1.15,2013-06-28 16:44:00,
2013-06-28 11:46:00,79.8,57.8,29.75,NW,316,13.0,17.0,47,0.00,,,0.00,Wunderground v.1.15,2013-06-28 16:46:00,
2013-06-28 11:48:00,79.9,59.6,29.75,WNW,291,13.0,17.0,50,0.00,,,0.00,Wunderground v.1.15,2013-06-28 16:48:00,
2013-06-28 11:50:00,80.1,58.0,29.75,West,276,12.0,12.0,47,0.00,,,0.00,Wunderground v.1.15,2013-06-28 16:50:00,
2013-06-28 11:52:00,80.1,58.6,29.75,NW,317,12.0,12.0,48,0.00,,,0.00,Wunderground v.1.15,2013-06-28 16:52:00,
2013-06-28 11:54:00,80.1,59.2,29.75,NNW,328,12.0,18.0,49,0.00,,,0.00,Wunderground v.1.15,2013-06-28 16:54:00,
2013-06-28 11:58:00,80.2,57.5,29.75,NNE,20,12.0,18.0,46,0.00,,,0.00,Wunderground v.1.15,2013-06-28 16:58:00,
2013-06-28 12:00:00,80.3,57.6,29.75,NNW,330,13.0,13.0,46,0.00,,,0.00,Wunderground v.1.15,2013-06-28 17:00:00,
2013-06-28 12:02:00,80.4,58.3,29.75,North,11,13.0,21.0,47,0.00,,,0.00,Wunderground v.1.15,2013-06-28 17:02:00,
2013-06-28 12:04:00,80.4,56.5,29.75,WNW,295,14.0,21.0,44,0.00,,,0.00,Wunderground v.1.15,2013-06-28 17:04:00,
2013-06-28 12:06:00,80.3,56.4,29.75,NNW,328,14.0,21.0,44,0.00,,,0.00,Wunderground v.1.15,2013-06-28 17:06:00,
2013-06-28 12:08:00,80.3,56.4,29.75,NNE,27,14.0,21.0,44,0.00,,,0.00,Wunderground v.1.15,2013-06-28 17:08:00,
2013-06-28 12:10:00,80.3,55.1,29.75,NE,35,14.0,14.0,42,0.00,,,0.00,Wunderground v.1.15,2013-06-28 17:10:00,
2013-06-28 12:14:00,80.3,56.4,29.75,WNW,302,15.0,15.0,44,0.00,,,0.00,Wunderground v.1.15,2013-06-28 17:14:00,
2013-06-28 12:16:00,80.4,56.5,29.75,NNW,333,14.0,15.0,44,0.00,,,0.00,Wunderground v.1.15,2013-06-28 17:16:00,
2013-06-28 12:22:00,80.6,56.7,29.75,NW,316,14.0,14.0,44,0.00,,,0.00,Wunderground v.1.15,2013-06-28 17:22:00,
2013-06-28 12:24:00,80.4,56.5,29.75,North,9,14.0,14.0,44,0.00,,,0.00,Wunderground v.1.15,2013-06-28 17:24:00,
2013-06-28 12:28:00,80.5,57.8,29.75,NW,312,14.0,14.0,46,0.00,,,0.00,Wunderground v.1.15,2013-06-28 17:28:00,
2013-06-28 12:30:00,80.5,56.6,29.75,NW,308,14.0,14.0,44,0.00,,,0.00,Wunderground v.1.15,2013-06-28 17:30:00,
2013-06-28 12:34:00,80.3,57.6,29.75,NW,316,14.0,16.0,46,0.00,,,0.00,Wunderground v.1.15,2013-06-28 17:34:00,
2013-06-28 12:36:00,80.3,57.6,29.75,ENE,58,13.0,16.0,46,0.00,,,0.00,Wunderground v.1.15,2013-06-28 17:36:00,
2013-06-28 12:38:00,80.3,57.0,29.75,West,278,14.0,16.0,45,0.00,,,0.00,Wunderground v.1.15,2013-06-28 17:38:00,
2013-06-28 12:40:00,80.1,57.5,29.75,NNE,23,14.0,14.0,46,0.00,,,0.00,Wunderground v.1.15,2013-06-28 17:40:00,
2013-06-28 12:44:00,80.1,57.5,29.75,NW,324,14.0,19.0,46,0.00,,,0.00,Wunderground v.1.15,2013-06-28 17:44:00,
2013-06-28 12:48:00,80.6,58.5,29.75,WNW,284,14.0,19.0,47,0.00,,,0.00,Wunderground v.1.15,2013-06-28 17:48:00,
2013-06-28 12:50:00,80.8,57.5,29.75,NNW,338,14.0,14.0,45,0.00,,,0.00,Wunderground v.1.15,2013-06-28 17:50:00,
2013-06-28 12:52:00,80.9,57.6,29.75,North,1,14.0,16.0,45,0.00,,,0.00,Wunderground v.1.15,2013-06-28 17:52:00,
2013-06-28 12:54:00,80.9,57.6,29.75,NNW,340,14.0,16.0,45,0.00,,,0.00,Wunderground v.1.15,2013-06-28 17:54:00,
2013-06-28 12:56:00,80.9,58.2,29.75,North,5,13.0,16.0,46,0.00,,,0.00,Wunderground v.1.15,2013-06-28 17:56:00,
2013-06-28 12:58:00,80.9,57.6,29.75,NNW,336,13.0,16.0,45,0.00,,,0.00,Wunderground v.1.15,2013-06-28 17:58:00,
2013-06-28 13:02:00,81.1,57.1,29.74,North,358,14.0,24.0,44,0.00,,,0.00,Wunderground v.1.15,2013-06-28 18:02:00,
2013-06-28 13:04:00,81.0,57.7,29.74,NNE,30,14.0,24.0,45,0.00,,,0.00,Wunderground v.1.15,2013-06-28 18:04:00,
2013-06-28 13:06:00,81.0,57.0,29.74,NW,325,14.0,24.0,44,0.00,,,0.00,Wunderground v.1.15,2013-06-28 18:06:00,
2013-06-28 13:08:00,80.9,58.2,29.74,West,265,14.0,24.0,46,0.00,,,0.00,Wunderground v.1.15,2013-06-28 18:08:00,
2013-06-28 13:10:00,81.0,57.0,29.74,NNW,328,14.0,24.0,44,0.00,,,0.00,Wunderground v.1.15,2013-06-28 18:10:00,
2013-06-28 13:12:00,80.9,58.2,29.74,North,354,14.0,24.0,46,0.00,,,0.00,Wunderground v.1.15,2013-06-28 18:12:00,
2013-06-28 13:18:00,80.7,58.0,29.74,NW,307,13.0,24.0,46,0.00,,,0.00,Wunderground v.1.15,2013-06-28 18:18:00,
2013-06-28 13:20:00,80.8,56.9,29.73,NNW,345,13.0,13.0,44,0.00,,,0.00,Wunderground v.1.15,2013-06-28 18:20:00,
2013-06-28 13:26:00,81.0,57.7,29.74,NW,325,14.0,24.0,45,0.00,,,0.00,Wunderground v.1.15,2013-06-28 18:26:00,
2013-06-28 13:30:00,81.2,55.9,29.73,NW,318,14.0,14.0,42,0.00,,,0.00,Wunderground v.1.15,2013-06-28 18:30:00,
2013-06-28 13:32:00,81.2,57.8,29.73,NNW,340,14.0,17.0,45,0.00,,,0.00,Wunderground v.1.15,2013-06-28 18:32:00,
2013-06-28 13:34:00,81.3,57.3,29.73,North,5,14.0,24.0,44,0.00,,,0.00,Wunderground v.1.15,2013-06-28 18:34:00,
2013-06-28 13:36:00,81.4,56.8,29.74,NW,325,14.0,24.0,43,0.00,,,0.00,Wunderground v.1.15,2013-06-28 18:36:00,
2013-06-28 13:40:00,81.6,56.9,29.73,WNW,297,13.0,24.0,43,0.00,,,0.00,Wunderground v.1.15,2013-06-28 18:40:00,
2013-06-28 13:44:00,82.1,57.4,29.73,NW,313,12.0,24.0,43,0.00,,,0.00,Wunderground v.1.15,2013-06-28 18:44:00,
2013-06-28 13:46:00,82.1,56.1,29.73,West,281,12.0,24.0,41,0.00,,,0.00,Wunderground v.1.15,2013-06-28 18:46:00,
2013-06-28 13:48:00,82.1,56.1,29.73,NNW,336,12.0,24.0,41,0.00,,,0.00,Wunderground v.1.15,2013-06-28 18:48:00,
2013-06-28 13:52:00,81.8,55.8,29.73,North,357,14.0,24.0,41,0.00,,,0.00,Wunderground v.1.15,2013-06-28 18:52:00,
2013-06-28 13:54:00,81.8,57.1,29.73,NW,321,14.0,24.0,43,0.00,,,0.00,Wunderground v.1.15,2013-06-28 18:54:00,
2013-06-28 13:58:00,81.7,57.0,29.73,NNW,330,14.0,24.0,43,0.00,,,0.00,Wunderground v.1.15,2013-06-28 18:58:00,
2013-06-28 14:02:00,81.7,55.7,29.73,NNE,17,12.0,24.0,41,0.00,,,0.00,Wunderground v.1.15,2013-06-28 19:02:00,
2013-06-28 14:04:00,81.7,56.4,29.73,North,356,13.0,24.0,42,0.00,,,0.00,Wunderground v.1.15,2013-06-28 19:04:00,
2013-06-28 14:06:00,81.6,56.3,29.73,NNW,328,13.0,24.0,42,0.00,,,0.00,Wunderground v.1.15,2013-06-28 19:06:00,
2013-06-28 14:08:00,81.6,56.3,29.73,NW,321,14.0,24.0,42,0.00,,,0.00,Wunderground v.1.15,2013-06-28 19:08:00,
2013-06-28 14:12:00,81.5,55.5,29.73,North,354,14.0,24.0,41,0.00,,,0.00,Wunderground v.1.15,2013-06-28 19:12:00,
2013-06-28 14:16:00,81.9,57.8,29.73,NW,308,14.0,24.0,44,0.00,,,0.00,Wunderground v.1.15,2013-06-28 19:16:00,
2013-06-28 14:20:00,81.9,56.6,29.73,NW,311,13.0,13.0,42,0.00,,,0.00,Wunderground v.1.15,2013-06-28 19:20:00,
2013-06-28 14:22:00,81.2,55.3,29.73,NW,324,13.0,17.0,41,0.00,,,0.00,Wunderground v.1.15,2013-06-28 19:22:00,
2013-06-28 14:26:00,81.0,57.0,29.73,NE,34,12.0,24.0,44,0.00,,,0.00,Wunderground v.1.15,2013-06-28 19:26:00,
2013-06-28 14:28:00,81.0,56.4,29.73,NW,316,13.0,24.0,43,0.00,,,0.00,Wunderground v.1.15,2013-06-28 19:28:00,
2013-06-28 14:32:00,81.2,57.8,29.73,NE,44,13.0,24.0,45,0.00,,,0.00,Wunderground v.1.15,2013-06-28 19:32:00,
2013-06-28 14:34:00,81.5,58.1,29.73,NNW,333,13.0,24.0,45,0.00,,,0.00,Wunderground v.1.15,2013-06-28 19:34:00,
2013-06-28 14:36:00,81.8,57.8,29.73,NW,324,13.0,24.0,44,0.00,,,0.00,Wunderground v.1.15,2013-06-28 19:36:00,
2013-06-28 14:38:00,81.8,57.8,29.73,NW,308,13.0,24.0,44,0.00,,,0.00,Wunderground v.1.15,2013-06-28 19:38:00,
2013-06-28 14:42:00,82.1,59.9,29.73,WNW,294,13.0,24.0,47,0.00,,,0.00,Wunderground v.1.15,2013-06-28 19:42:00,
2013-06-28 14:44:00,82.3,58.2,29.73,NW,318,12.0,24.0,44,0.00,,,0.00,Wunderground v.1.15,2013-06-28 19:44:00,
2013-06-28 14:46:00,82.3,58.8,29.73,NNW,330,12.0,24.0,45,0.00,,,0.00,Wunderground v.1.15,2013-06-28 19:46:00,
2013-06-28 14:52:00,81.6,57.6,29.73,NW,312,12.0,12.0,44,0.00,,,0.00,Wunderground v.1.15,2013-06-28 19:52:00,
2013-06-28 14:54:00,81.4,58.6,29.73,WNW,301,12.0,24.0,46,0.00,,,0.00,Wunderground v.1.15,2013-06-28 19:54:00,
2013-06-28 14:56:00,81.2,57.8,29.73,West,276,12.0,24.0,45,0.00,,,0.00,Wunderground v.1.15,2013-06-28 19:56:00,
2013-06-28 15:02:00,81.3,58.5,29.73,NNW,333,12.0,24.0,46,0.00,,,0.00,Wunderground v.1.15,2013-06-28 20:02:00,
2013-06-28 15:04:00,81.5,59.3,29.73,North,4,11.0,24.0,47,0.00,,,0.00,Wunderground v.1.15,2013-06-28 20:04:00,
2013-06-28 15:06:00,81.5,58.7,29.73,NNW,342,11.0,24.0,46,0.00,,,0.00,Wunderground v.1.15,2013-06-28 20:06:00,
2013-06-28 15:08:00,81.2,57.2,29.72,North,357,12.0,24.0,44,0.00,,,0.00,Wunderground v.1.15,2013-06-28 20:08:00,
2013-06-28 15:10:00,81.0,57.7,29.73,North,11,12.0,24.0,45,0.00,,,0.00,Wunderground v.1.15,2013-06-28 20:10:00,
2013-06-28 15:12:00,81.2,58.5,29.73,NW,324,12.0,24.0,46,0.00,,,0.00,Wunderground v.1.15,2013-06-28 20:12:00,
2013-06-28 15:14:00,81.1,56.5,29.72,NW,319,12.0,24.0,43,0.00,,,0.00,Wunderground v.1.15,2013-06-28 20:14:00,
2013-06-28 15:18:00,81.5,58.7,29.73,NE,46,13.0,24.0,46,0.00,,,0.00,Wunderground v.1.15,2013-06-28 20:18:00,
2013-06-28 15:20:00,81.7,60.1,29.72,NNW,345,12.0,24.0,48,0.00,,,0.00,Wunderground v.1.15,2013-06-28 20:20:00,
2013-06-28 15:22:00,82.2,60.0,29.72,NNW,333,12.0,24.0,47,0.00,,,0.00,Wunderground v.1.15,2013-06-28 20:22:00,
2013-06-28 15:26:00,81.6,58.8,29.72,North,353,11.0,24.0,46,0.00,,,0.00,Wunderground v.1.15,2013-06-28 20:26:00,
2013-06-28 15:30:00,81.7,58.9,29.72,NNW,333,12.0,24.0,46,0.00,,,0.00,Wunderground v.1.15,2013-06-28 20:30:00,
2013-06-28 15:34:00,81.7,57.7,29.73,NNW,345,13.0,24.0,44,0.00,,,0.00,Wunderground v.1.15,2013-06-28 20:34:00,
2013-06-28 15:36:00,81.5,57.5,29.72,North,360,14.0,24.0,44,0.00,,,0.00,Wunderground v.1.15,2013-06-28 20:36:00,
2013-06-28 15:38:00,81.0,57.0,29.72,NW,325,14.0,24.0,44,0.00,,,0.00,Wunderground v.1.15,2013-06-28 20:38:00,
2013-06-28 15:40:00,80.5,56.6,29.72,North,355,14.0,24.0,44,0.00,,,0.00,Wunderground v.1.15,2013-06-28 20:40:00,
2013-06-28 15:42:00,80.1,57.5,29.72,NW,321,13.0,24.0,46,0.00,,,0.00,Wunderground v.1.15,2013-06-28 20:42:00,
2013-06-28 15:48:00,80.9,57.6,29.72,NNE,13,13.0,24.0,45,0.00,,,0.00,Wunderground v.1.15,2013-06-28 20:48:00,
2013-06-28 15:52:00,81.3,59.7,29.72,NNW,328,12.0,24.0,48,0.00,,,0.00,Wunderground v.1.15,2013-06-28 20:52:00,
2013-06-28 15:54:00,81.6,59.4,29.72,North,11,12.0,24.0,47,0.00,,,0.00,Wunderground v.1.15,2013-06-28 20:54:00,
2013-06-28 15:56:00,81.7,58.9,29.72,NNW,333,13.0,24.0,46,0.00,,,0.00,Wunderground v.1.15,2013-06-28 20:56:00,
2013-06-28 15:58:00,81.9,59.1,29.72,NNW,344,13.0,24.0,46,0.00,,,0.00,Wunderground v.1.15,2013-06-28 20:58:00,
2013-06-28 16:00:00,81.6,58.8,29.72,North,1,13.0,24.0,46,0.00,,,0.00,Wunderground v.1.15,2013-06-28 21:00:00,
2013-06-28 16:02:00,81.1,59.0,29.72,NW,313,13.0,24.0,47,0.00,,,0.00,Wunderground v.1.15,2013-06-28 21:02:00,
2013-06-28 16:04:00,81.1,59.0,29.72,NNW,348,13.0,24.0,47,0.00,,,0.00,Wunderground v.1.15,2013-06-28 21:04:00,
2013-06-28 16:08:00,80.5,59.0,29.72,NNE,25,12.0,24.0,48,0.00,,,0.00,Wunderground v.1.15,2013-06-28 21:08:00,
2013-06-28 16:10:00,80.5,59.6,29.72,NNE,33,13.0,24.0,49,0.00,,,0.00,Wunderground v.1.15,2013-06-28 21:10:00,
2013-06-28 16:12:00,80.7,59.2,29.72,NW,321,12.0,24.0,48,0.00,,,0.00,Wunderground v.1.15,2013-06-28 21:12:00,
2013-06-28 16:14:00,80.8,58.7,29.72,ENE,65,13.0,24.0,47,0.00,,,0.00,Wunderground v.1.15,2013-06-28 21:14:00,
2013-06-28 16:16:00,81.0,59.5,29.72,NW,325,13.0,24.0,48,0.00,,,0.00,Wunderground v.1.15,2013-06-28 21:16:00,
2013-06-28 16:18:00,80.8,59.3,29.72,North,360,13.0,24.0,48,0.00,,,0.00,Wunderground v.1.15,2013-06-28 21:18:00,
2013-06-28 16:22:00,79.8,58.4,29.72,North,10,13.0,24.0,48,0.00,,,0.00,Wunderground v.1.15,2013-06-28 21:22:00,
2013-06-28 16:26:00,80.1,58.6,29.72,North,360,12.0,24.0,48,0.00,,,0.00,Wunderground v.1.15,2013-06-28 21:26:00,
2013-06-28 16:30:00,79.6,59.3,29.72,North,352,11.0,24.0,50,0.00,,,0.00,Wunderground v.1.15,2013-06-28 21:30:00,
2013-06-28 16:32:00,79.9,60.2,29.72,North,5,11.0,24.0,51,0.00,,,0.00,Wunderground v.1.15,2013-06-28 21:32:00,
2013-06-28 16:36:00,80.2,58.7,29.72,NNE,20,13.0,24.0,48,0.00,,,0.00,Wunderground v.1.15,2013-06-28 21:36:00,
2013-06-28 16:38:00,80.2,59.3,29.72,NNE,16,12.0,24.0,49,0.00,,,0.00,Wunderground v.1.15,2013-06-28 21:38:00,
2013-06-28 16:40:00,80.1,59.2,29.72,NNE,27,12.0,24.0,49,0.00,,,0.00,Wunderground v.1.15,2013-06-28 21:40:00,
2013-06-28 16:42:00,79.8,58.9,29.72,NNW,333,13.0,24.0,49,0.00,,,0.00,Wunderground v.1.15,2013-06-28 21:42:00,
2013-06-28 16:46:00,80.0,58.5,29.72,NNW,340,12.0,24.0,48,0.00,,,0.00,Wunderground v.1.15,2013-06-28 21:46:00,
2013-06-28 16:48:00,80.0,59.1,29.72,NNE,15,13.0,24.0,49,0.00,,,0.00,Wunderground v.1.15,2013-06-28 21:48:00,
2013-06-28 16:54:00,80.0,60.2,29.72,North,353,13.0,24.0,51,0.00,,,0.00,Wunderground v.1.15,2013-06-28 21:54:00,
2013-06-28 16:56:00,80.2,60.4,29.72,ENE,58,13.0,24.0,51,0.00,,,0.00,Wunderground v.1.15,2013-06-28 21:56:00,
2013-06-28 17:00:00,80.7,62.5,29.72,NW,322,12.0,24.0,54,0.00,,,0.00,Wunderground v.1.15,2013-06-28 22:00:00,
2013-06-28 17:04:00,80.9,60.5,29.72,NNE,15,13.0,24.0,50,0.00,,,0.00,Wunderground v.1.15,2013-06-28 22:04:00,
2013-06-28 17:06:00,80.8,59.9,29.72,North,352,13.0,24.0,49,0.00,,,0.00,Wunderground v.1.15,2013-06-28 22:06:00,
2013-06-28 17:08:00,80.6,59.7,29.72,North,351,13.0,24.0,49,0.00,,,0.00,Wunderground v.1.15,2013-06-28 22:08:00,
2013-06-28 17:10:00,80.5,60.7,29.72,NE,51,13.0,13.0,51,0.00,,,0.00,Wunderground v.1.15,2013-06-28 22:10:00,
2013-06-28 17:14:00,80.1,59.8,29.72,North,356,12.0,24.0,50,0.00,,,0.00,Wunderground v.1.15,2013-06-28 22:14:00,
2013-06-28 17:16:00,80.0,61.3,29.72,WNW,300,11.0,24.0,53,0.00,,,0.00,Wunderground v.1.15,2013-06-28 22:16:00,
2013-06-28 17:18:00,80.1,61.4,29.72,NNE,18,11.0,24.0,53,0.00,,,0.00,Wunderground v.1.15,2013-06-28 22:18:00,
2013-06-28 17:24:00,80.4,60.6,29.72,NNE,22,12.0,24.0,51,0.00,,,0.00,Wunderground v.1.15,2013-06-28 22:24:00,
2013-06-28 17:26:00,80.3,59.4,29.72,NNW,335,12.0,24.0,49,0.00,,,0.00,Wunderground v.1.15,2013-06-28 22:26:00,
2013-06-28 17:28:00,79.9,59.0,29.72,North,10,13.0,24.0,49,0.00,,,0.00,Wunderground v.1.15,2013-06-28 22:28:00,
2013-06-28 17:32:00,79.4,59.7,29.72,NW,316,13.0,24.0,51,0.00,,,0.00,Wunderground v.1.15,2013-06-28 22:32:00,
2013-06-28 17:34:00,79.6,61.0,29.72,NNE,12,13.0,24.0,53,0.00,,,0.00,Wunderground v.1.15,2013-06-28 22:34:00,
2013-06-28 17:38:00,79.7,60.0,29.72,NE,50,13.0,24.0,51,0.00,,,0.00,Wunderground v.1.15,2013-06-28 22:38:00,
2013-06-28 17:42:00,79.7,60.5,29.72,NNE,13,12.0,13.0,52,0.00,,,0.00,Wunderground v.1.15,2013-06-28 22:42:00,
2013-06-28 17:44:00,79.7,59.4,29.72,NNW,342,12.0,24.0,50,0.00,,,0.00,Wunderground v.1.15,2013-06-28 22:44:00,
2013-06-28 17:46:00,79.8,60.6,29.72,NNW,347,11.0,24.0,52,0.00,,,0.00,Wunderground v.1.15,2013-06-28 22:46:00,
2013-06-28 17:52:00,79.7,58.8,29.72,North,360,11.0,24.0,49,0.00,,,0.00,Wunderground v.1.15,2013-06-28 22:52:00,
2013-06-28 17:54:00,79.6,58.8,29.72,North,1,12.0,24.0,49,0.00,,,0.00,Wunderground v.1.15,2013-06-28 22:54:00,
2013-06-28 17:56:00,79.3,58.5,29.72,North,1,13.0,24.0,49,0.00,,,0.00,Wunderground v.1.15,2013-06-28 22:56:00,
2013-06-28 17:58:00,79.2,59.0,29.72,NNW,337,13.0,24.0,50,0.00,,,0.00,Wunderground v.1.15,2013-06-28 22:58:00,
2013-06-28 18:02:00,78.9,59.2,29.72,North,11,14.0,24.0,51,0.00,,,0.00,Wunderground v.1.15,2013-06-28 23:02:00,
2013-06-28 18:06:00,78.6,58.4,29.72,NNW,338,13.0,24.0,50,0.00,,,0.00,Wunderground v.1.15,2013-06-28 23:06:00,
2013-06-28 18:08:00,78.2,58.6,29.72,NNE,20,13.0,24.0,51,0.00,,,0.00,Wunderground v.1.15,2013-06-28 23:08:00,
2013-06-28 18:14:00,78.1,59.0,29.72,NNW,330,12.0,24.0,52,0.00,,,0.00,Wunderground v.1.15,2013-06-28 23:14:00,
2013-06-28 18:16:00,77.8,58.8,29.72,NE,43,11.0,24.0,52,0.00,,,0.00,Wunderground v.1.15,2013-06-28 23:16:00,
2013-06-28 18:22:00,78.5,59.4,29.71,North,3,10.0,13.0,52,0.00,,,0.00,Wunderground v.1.15,2013-06-28 23:22:00,
2013-06-28 18:24:00,78.6,59.0,29.71,NW,314,11.0,16.0,51,0.00,,,0.00,Wunderground v.1.15,2013-06-28 23:24:00,
2013-06-28 18:26:00,78.5,58.9,29.71,North,9,11.0,24.0,51,0.00,,,0.00,Wunderground v.1.15,2013-06-28 23:26:00,
2013-06-28 18:30:00,78.6,59.0,29.71,North,6,12.0,24.0,51,0.00,,,0.00,Wunderground v.1.15,2013-06-28 23:30:00,
2013-06-28 18:32:00,78.6,59.0,29.72,NNW,336,12.0,24.0,51,0.00,,,0.00,Wunderground v.1.15,2013-06-28 23:32:00,
2013-06-28 18:34:00,78.7,59.0,29.72,NNE,33,11.0,24.0,51,0.00,,,0.00,Wunderground v.1.15,2013-06-28 23:34:00,
2013-06-28 18:36:00,78.7,59.6,29.71,NW,319,11.0,24.0,52,0.00,,,0.00,Wunderground v.1.15,2013-06-28 23:36:00,
2013-06-28 18:38:00,78.7,59.6,29.72,NNE,16,11.0,24.0,52,0.00,,,0.00,Wunderground v.1.15,2013-06-28 23:38:00,
2013-06-28 18:40:00,78.4,58.2,29.71,NNW,338,11.0,24.0,50,0.00,,,0.00,Wunderground v.1.15,2013-06-28 23:40:00,
2013-06-28 18:42:00,78.3,58.1,29.72,NW,325,11.0,24.0,50,0.00,,,0.00,Wunderground v.1.15,2013-06-28 23:42:00,
2013-06-28 18:48:00,78.4,59.3,29.71,North,1,12.0,24.0,52,0.00,,,0.00,Wunderground v.1.15,2013-06-28 23:48:00,
2013-06-28 18:50:00,78.5,59.9,29.71,NNW,343,11.0,11.0,53,0.00,,,0.00,Wunderground v.1.15,2013-06-28 23:50:00,
2013-06-28 18:52:00,78.5,59.9,29.71,North,4,10.0,24.0,53,0.00,,,0.00,Wunderground v.1.15,2013-06-28 23:52:00,
2013-06-28 18:54:00,78.5,59.4,29.71,NW,324,11.0,24.0,52,0.00,,,0.00,Wunderground v.1.15,2013-06-28 23:54:00,
2013-06-28 18:56:00,78.5,59.9,29.71,NNE,12,10.0,24.0,53,0.00,,,0.00,Wunderground v.1.15,2013-06-28 23:56:00,
2013-06-28 18:58:00,78.5,59.4,29.71,NE,36,10.0,24.0,52,0.00,,,0.00,Wunderground v.1.15,2013-06-28 23:58:00,
2013-06-28 19:02:00,78.5,59.9,29.71,NW,312,10.0,24.0,53,0.00,,,0.00,Wunderground v.1.15,2013-06-29 00:02:00,
2013-06-28 19:04:00,78.4,59.9,29.71,NNW,339,10.0,24.0,53,0.00,,,0.00,Wunderground v.1.15,2013-06-29 00:04:00,
2013-06-28 19:08:00,78.3,59.2,29.71,NE,39,10.0,24.0,52,0.00,,,0.00,Wunderground v.1.15,2013-06-29 00:08:00,
2013-06-28 19:10:00,78.3,59.2,29.71,NNE,32,11.0,24.0,52,0.00,,,0.00,Wunderground v.1.15,2013-06-29 00:10:00,
2013-06-28 19:14:00,78.2,59.1,29.71,NNW,343,11.0,24.0,52,0.00,,,0.00,Wunderground v.1.15,2013-06-29 00:14:00,
2013-06-28 19:16:00,77.9,59.4,29.71,North,6,11.0,24.0,53,0.00,,,0.00,Wunderground v.1.15,2013-06-29 00:16:00,
2013-06-28 19:22:00,77.6,59.6,29.72,NNW,333,10.0,24.0,54,0.00,,,0.00,Wunderground v.1.15,2013-06-29 00:22:00,
2013-06-28 19:24:00,77.7,59.7,29.71,NW,314,9.0,24.0,54,0.00,,,0.00,Wunderground v.1.15,2013-06-29 00:24:00,
2013-06-28 19:26:00,77.7,59.7,29.71,NE,41,9.0,24.0,54,0.00,,,0.00,Wunderground v.1.15,2013-06-29 00:26:00,
2013-06-28 19:30:00,77.8,60.3,29.71,NNE,20,9.0,9.0,55,0.00,,,0.00,Wunderground v.1.15,2013-06-29 00:30:00,
2013-06-28 19:32:00,77.7,59.7,29.71,NW,321,9.0,24.0,54,0.00,,,0.00,Wunderground v.1.15,2013-06-29 00:32:00,
2013-06-28 19:34:00,77.6,59.6,29.71,NW,318,8.0,24.0,54,0.00,,,0.00,Wunderground v.1.15,2013-06-29 00:34:00,
2013-06-28 19:38:00,77.6,60.2,29.71,NW,324,9.0,24.0,55,0.00,,,0.00,Wunderground v.1.15,2013-06-29 00:38:00,
2013-06-28 19:40:00,77.5,60.1,29.71,NW,322,9.0,24.0,55,0.00,,,0.00,Wunderground v.1.15,2013-06-29 00:40:00,
2013-06-28 19:42:00,77.5,60.1,29.71,NNW,338,9.0,24.0,55,0.00,,,0.00,Wunderground v.1.15,2013-06-29 00:42:00,
2013-06-28 19:44:00,77.3,58.8,29.71,North,354,9.0,24.0,53,0.00,,,0.00,Wunderground v.1.15,2013-06-29 00:44:00,
2013-06-28 19:48:00,77.3,58.8,29.71,NNE,22,10.0,24.0,53,0.00,,,0.00,Wunderground v.1.15,2013-06-29 00:48:00,
2013-06-28 19:50:00,77.2,59.3,29.71,NNW,340,10.0,10.0,54,0.00,,,0.00,Wunderground v.1.15,2013-06-29 00:50:00,
2013-06-28 19:54:00,77.1,59.2,29.71,NNW,347,10.0,24.0,54,0.00,,,0.00,Wunderground v.1.15,2013-06-29 00:54:00,
2013-06-28 19:56:00,77.0,59.1,29.71,NNE,25,9.0,24.0,54,0.00,,,0.00,Wunderground v.1.15,2013-06-29 00:56:00,
2013-06-28 19:58:00,77.0,58.6,29.71,WNW,290,9.0,24.0,53,0.00,,,0.00,Wunderground v.1.15,2013-06-29 00:58:00,
2013-06-28 20:02:00,76.8,58.9,29.71,NW,307,9.0,24.0,54,0.00,,,0.00,Wunderground v.1.15,2013-06-29 01:02:00,
2013-06-28 20:04:00,76.8,58.9,29.71,NE,50,9.0,24.0,54,0.00,,,0.00,Wunderground v.1.15,2013-06-29 01:04:00,
2013-06-28 20:06:00,76.8,58.9,29.71,North,3,9.0,24.0,54,0.00,,,0.00,Wunderground v.1.15,2013-06-29 01:06:00,
2013-06-28 20:12:00,76.6,59.2,29.71,NNW,328,10.0,10.0,55,0.00,,,0.00,Wunderground v.1.15,2013-06-29 01:12:00,
2013-06-28 20:16:00,76.3,58.4,29.71,NW,325,9.0,24.0,54,0.00,,,0.00,Wunderground v.1.15,2013-06-29 01:16:00,
2013-06-28 20:20:00,76.2,58.3,29.71,NNW,338,9.0,9.0,54,0.00,,,0.00,Wunderground v.1.15,2013-06-29 01:20:00,
2013-06-28 20:22:00,76.1,58.8,29.71,North,355,9.0,24.0,55,0.00,,,0.00,Wunderground v.1.15,2013-06-29 01:22:00,
2013-06-28 20:26:00,75.9,58.6,29.71,North,4,8.0,24.0,55,0.00,,,0.00,Wunderground v.1.15,2013-06-29 01:26:00,
2013-06-28 20:28:00,75.7,58.9,29.71,NNE,13,8.0,24.0,56,0.00,,,0.00,Wunderground v.1.15,2013-06-29 01:28:00,
2013-06-28 20:30:00,75.6,58.8,29.71,NNW,333,7.0,7.0,56,0.00,,,0.00,Wunderground v.1.15,2013-06-29 01:30:00,
2013-06-28 20:34:00,75.4,58.6,29.71,WNW,295,7.0,24.0,56,0.00,,,0.00,Wunderground v.1.15,2013-06-29 01:34:00,
2013-06-28 20:36:00,75.3,58.5,29.71,NE,34,7.0,24.0,56,0.00,,,0.00,Wunderground v.1.15,2013-06-29 01:36:00,
2013-06-28 20:40:00,75.0,58.7,29.71,ENE,67,6.0,24.0,57,0.00,,,0.00,Wunderground v.1.15,2013-06-29 01:40:00,
2013-06-28 20:44:00,74.8,58.5,29.71,NNE,30,6.0,24.0,57,0.00,,,0.00,Wunderground v.1.15,2013-06-29 01:44:00,
2013-06-28 20:46:00,74.6,58.8,29.71,NNW,338,6.0,24.0,58,0.00,,,0.00,Wunderground v.1.15,2013-06-29 01:46:00,
2013-06-28 20:50:00,74.2,58.0,29.71,WNW,302,5.0,24.0,57,0.00,,,0.00,Wunderground v.1.15,2013-06-29 01:50:00,
2013-06-28 20:56:00,73.9,58.2,29.71,WNW,295,6.0,24.0,58,0.00,,,0.00,Wunderground v.1.15,2013-06-29 01:56:00,
2013-06-28 20:58:00,73.8,57.6,29.71,North,356,6.0,24.0,57,0.00,,,0.00,Wunderground v.1.15,2013-06-29 01:58:00,
2013-06-28 21:00:00,73.8,57.6,29.72,NNW,328,7.0,7.0,57,0.00,,,0.00,Wunderground v.1.15,2013-06-29 02:00:00,
2013-06-28 21:04:00,73.6,57.4,29.72,NNW,330,7.0,9.0,57,0.00,,,0.00,Wunderground v.1.15,2013-06-29 02:04:00,
2013-06-28 21:06:00,73.5,56.8,29.72,NW,325,7.0,10.0,56,0.00,,,0.00,Wunderground v.1.15,2013-06-29 02:06:00,
2013-06-28 21:08:00,73.6,57.4,29.72,NNW,345,8.0,24.0,57,0.00,,,0.00,Wunderground v.1.15,2013-06-29 02:08:00,
2013-06-28 21:10:00,73.6,57.4,29.72,NNW,343,8.0,8.0,57,0.00,,,0.00,Wunderground v.1.15,2013-06-29 02:10:00,
2013-06-28 21:16:00,73.1,57.4,29.72,WNW,301,7.0,24.0,58,0.00,,,0.00,Wunderground v.1.15,2013-06-29 02:16:00,
2013-06-28 21:18:00,73.0,57.3,29.72,NNW,328,6.0,24.0,58,0.00,,,0.00,Wunderground v.1.15,2013-06-29 02:18:00,
2013-06-28 21:24:00,72.3,57.6,29.72,NNW,347,5.0,24.0,60,0.00,,,0.00,Wunderground v.1.15,2013-06-29 02:24:00,
2013-06-28 21:26:00,72.1,57.4,29.72,NNE,16,5.0,24.0,60,0.00,,,0.00,Wunderground v.1.15,2013-06-29 02:26:00,
2013-06-28 21:30:00,71.6,57.4,29.72,North,350,4.0,4.0,61,0.00,,,0.00,Wunderground v.1.15,2013-06-29 02:30:00,
2013-06-28 21:32:00,71.5,57.3,29.72,NNW,330,4.0,24.0,61,0.00,,,0.00,Wunderground v.1.15,2013-06-29 02:32:00,
2013-06-28 21:38:00,71.3,57.6,29.72,North,359,4.0,24.0,62,0.00,,,0.00,Wunderground v.1.15,2013-06-29 02:38:00,
2013-06-28 21:40:00,71.2,58.0,29.72,North,5,4.0,24.0,63,0.00,,,0.00,Wunderground v.1.15,2013-06-29 02:40:00,
2013-06-28 21:42:00,71.1,57.9,29.72,NNW,345,4.0,24.0,63,0.00,,,0.00,Wunderground v.1.15,2013-06-29 02:42:00,
2013-06-28 21:46:00,71.1,57.9,29.72,North,352,5.0,24.0,63,0.00,,,0.00,Wunderground v.1.15,2013-06-29 02:46:00,
2013-06-28 21:48:00,71.0,58.2,29.72,North,4,5.0,24.0,64,0.00,,,0.00,Wunderground v.1.15,2013-06-29 02:48:00,
2013-06-28 21:52:00,70.9,58.1,29.72,North,9,5.0,24.0,64,0.00,,,0.00,Wunderground v.1.15,2013-06-29 02:52:00,
2013-06-28 21:54:00,70.7,57.9,29.72,NNE,22,4.0,24.0,64,0.00,,,0.00,Wunderground v.1.15,2013-06-29 02:54:00,
2013-06-28 21:56:00,70.7,57.9,29.72,NNW,348,4.0,24.0,64,0.00,,,0.00,Wunderground v.1.15,2013-06-29 02:56:00,
2013-06-28 22:00:00,70.5,58.2,29.72,NNW,331,4.0,4.0,65,0.00,,,0.00,Wunderground v.1.15,2013-06-29 03:00:00,
2013-06-28 22:02:00,70.4,58.1,29.72,NNE,18,4.0,24.0,65,0.00,,,0.00,Wunderground v.1.15,2013-06-29 03:02:00,
2013-06-28 22:06:00,70.3,58.0,29.72,NNW,332,4.0,24.0,65,0.00,,,0.00,Wunderground v.1.15,2013-06-29 03:06:00,
2013-06-28 22:10:00,70.7,58.4,29.73,North,355,5.0,5.0,65,0.00,,,0.00,Wunderground v.1.15,2013-06-29 03:10:00,
2013-06-28 22:12:00,70.8,58.0,29.73,NNE,25,5.0,24.0,64,0.00,,,0.00,Wunderground v.1.15,2013-06-29 03:12:00,
2013-06-28 22:16:00,71.1,58.3,29.72,North,9,6.0,24.0,64,0.00,,,0.00,Wunderground v.1.15,2013-06-29 03:16:00,
2013-06-28 22:18:00,71.3,58.1,29.73,NNW,337,6.0,24.0,63,0.00,,,0.00,Wunderground v.1.15,2013-06-29 03:18:00,
2013-06-28 22:20:00,71.4,58.1,29.72,NW,316,7.0,7.0,63,0.00,,,0.00,Wunderground v.1.15,2013-06-29 03:20:00,
2013-06-28 22:22:00,71.4,58.1,29.72,NW,325,6.0,24.0,63,0.00,,,0.00,Wunderground v.1.15,2013-06-29 03:22:00,
2013-06-28 22:24:00,71.4,58.6,29.72,NNW,346,7.0,24.0,64,0.00,,,0.00,Wunderground v.1.15,2013-06-29 03:24:00,
2013-06-28 22:28:00,71.2,58.4,29.73,NNE,18,6.0,24.0,64,0.00,,,0.00,Wunderground v.1.15,2013-06-29 03:28:00,
2013-06-28 22:32:00,71.1,58.3,29.73,NNW,333,6.0,24.0,64,0.00,,,0.00,Wunderground v.1.15,2013-06-29 03:32:00,
2013-06-28 22:34:00,71.0,58.2,29.73,NNW,342,5.0,24.0,64,0.00,,,0.00,Wunderground v.1.15,2013-06-29 03:34:00,
2013-06-28 22:38:00,70.8,58.4,29.73,NNW,332,5.0,24.0,65,0.00,,,0.00,Wunderground v.1.15,2013-06-29 03:38:00,
2013-06-28 22:40:00,70.7,58.4,29.72,NW,314,5.0,5.0,65,0.00,,,0.00,Wunderground v.1.15,2013-06-29 03:40:00,
2013-06-28 22:42:00,70.7,58.8,29.72,NW,321,5.0,24.0,66,0.00,,,0.00,Wunderground v.1.15,2013-06-29 03:42:00,
2013-06-28 22:44:00,70.5,58.6,29.72,NNW,327,5.0,24.0,66,0.00,,,0.00,Wunderground v.1.15,2013-06-29 03:44:00,
2013-06-28 22:50:00,70.2,58.7,29.72,NW,318,4.0,24.0,67,0.00,,,0.00,Wunderground v.1.15,2013-06-29 03:50:00,
2013-06-28 22:52:00,70.0,58.5,29.72,NW,308,4.0,24.0,67,0.00,,,0.00,Wunderground v.1.15,2013-06-29 03:52:00,
2013-06-28 22:56:00,69.8,58.8,29.72,NW,324,4.0,24.0,68,0.00,,,0.00,Wunderground v.1.15,2013-06-29 03:56:00,
2013-06-28 22:58:00,69.8,58.8,29.72,NW,320,4.0,24.0,68,0.00,,,0.00,Wunderground v.1.15,2013-06-29 03:58:00,
2013-06-28 23:00:00,69.7,58.7,29.72,NW,312,4.0,4.0,68,0.00,,,0.00,Wunderground v.1.15,2013-06-29 04:00:00,
2013-06-28 23:02:00,69.6,58.6,29.72,NNW,331,4.0,24.0,68,0.00,,,0.00,Wunderground v.1.15,2013-06-29 04:02:00,
2013-06-28 23:04:00,69.6,59.0,29.72,North,360,4.0,24.0,69,0.00,,,0.00,Wunderground v.1.15,2013-06-29 04:04:00,
2013-06-28 23:06:00,69.5,58.9,29.72,NW,321,4.0,24.0,69,0.00,,,0.00,Wunderground v.1.15,2013-06-29 04:06:00,
2013-06-28 23:10:00,69.3,59.1,29.72,NW,324,4.0,4.0,70,0.00,,,0.00,Wunderground v.1.15,2013-06-29 04:10:00,
2013-06-28 23:12:00,69.2,59.4,29.72,NNW,342,4.0,24.0,71,0.00,,,0.00,Wunderground v.1.15,2013-06-29 04:12:00,
2013-06-28 23:14:00,69.0,59.2,29.72,NNW,328,3.0,24.0,71,0.00,,,0.00,Wunderground v.1.15,2013-06-29 04:14:00,
2013-06-28 23:16:00,68.9,59.1,29.72,WNW,299,3.0,24.0,71,0.00,,,0.00,Wunderground v.1.15,2013-06-29 04:16:00,
2013-06-28 23:18:00,68.8,59.0,29.72,North,360,3.0,24.0,71,0.00,,,0.00,Wunderground v.1.15,2013-06-29 04:18:00,
2013-06-28 23:20:00,68.7,59.3,29.72,NW,320,3.0,3.0,72,0.00,,,0.00,Wunderground v.1.15,2013-06-29 04:20:00,
2013-06-28 23:24:00,68.4,59.0,29.72,WNW,301,3.0,24.0,72,0.00,,,0.00,Wunderground v.1.15,2013-06-29 04:24:00,
2013-06-28 23:26:00,68.3,59.3,29.72,NW,314,3.0,24.0,73,0.00,,,0.00,Wunderground v.1.15,2013-06-29 04:26:00,
2013-06-28 23:28:00,68.1,59.1,29.72,NW,316,3.0,24.0,73,0.00,,,0.00,Wunderground v.1.15,2013-06-29 04:28:00,
2013-06-28 23:32:00,67.8,59.2,29.72,NW,325,2.0,24.0,74,0.00,,,0.00,Wunderground v.1.15,2013-06-29 04:32:00,
2013-06-28 23:34:00,67.6,59.0,29.72,North,352,2.0,24.0,74,0.00,,,0.00,Wunderground v.1.15,2013-06-29 04:34:00,
2013-06-28 23:36:00,67.5,59.3,29.72,NW,318,2.0,24.0,75,0.00,,,0.00,Wunderground v.1.15,2013-06-29 04:36:00,
2013-06-28 23:42:00,66.8,59.4,29.72,NW,311,2.0,24.0,77,0.00,,,0.00,Wunderground v.1.15,2013-06-29 04:42:00,
2013-06-28 23:44:00,66.7,59.3,29.72,NW,311,2.0,24.0,77,0.00,,,0.00,Wunderground v.1.15,2013-06-29 04:44:00,
2013-06-28 23:46:00,66.6,59.2,29.72,NW,324,2.0,24.0,77,0.00,,,0.00,Wunderground v.1.15,2013-06-29 04:46:00,
2013-06-28 23:52:00,66.8,59.0,29.72,West,266,3.0,24.0,76,0.00,,,0.00,Wunderground v.1.15,2013-06-29 04:52:00,
2013-06-28 23:54:00,66.8,59.0,29.72,NNW,330,3.0,24.0,76,0.00,,,0.00,Wunderground v.1.15,2013-06-29 04:54:00,
2013-06-28 23:56:00,66.8,59.0,29.72,NW,322,3.0,24.0,76,0.00,,,0.00,Wunderground v.1.15,2013-06-29 04:56:00,